Meteo pe oră la Bolshie Nevadicy

Astăzi, 19 Mai, Miercuri

Timp Temperatura Precipitaţii Vânt Presiune Umiditate
00:00 +15°C° 0 mm 1 m/s 746 mmHg 96%
01:00 +15°C° 0 mm 1 m/s 746 mmHg 96%
02:00 +15°C° 0 mm 1 m/s 745 mmHg 96%
03:00 +15°C° 0.1 mm 1 m/s 745 mmHg 96%
04:00 +15°C° 0.1 mm 1 m/s 745 mmHg 97%
05:00 +15°C° 0.1 mm 1 m/s 744 mmHg 97%
06:00 +15°C° 0.8 mm 2 m/s 744 mmHg 97%
07:00 +16°C° 0.8 mm 2 m/s 744 mmHg 97%
08:00 +16°C° 0.8 mm 3 m/s 744 mmHg 97%
09:00 +16°C° 0.4 mm 3 m/s 745 mmHg 97%
10:00 +16°C° 0.4 mm 3 m/s 745 mmHg 96%
11:00 +17°C° 0.4 mm 3 m/s 745 mmHg 95%
12:00 +17°C° 0.4 mm 3 m/s 745 mmHg 94%
13:00 +17°C° 0.4 mm 3 m/s 746 mmHg 92%
14:00 +17°C° 0.4 mm 3 m/s 746 mmHg 91%
15:00 +16°C° 0.2 mm 3 m/s 746 mmHg 91%
16:00 +16°C° 0.2 mm 3 m/s 747 mmHg 91%
17:00 +14°C° 0.2 mm 3 m/s 747 mmHg 91%
18:00 +14°C° 0 mm 3 m/s 747 mmHg 91%
19:00 +13°C° 0 mm 3 m/s 748 mmHg 91%
20:00 +12°C° 0 mm 3 m/s 748 mmHg 91%
21:00 +12°C° 0 mm 3 m/s 748 mmHg 92%
22:00 +11°C° 0 mm 3 m/s 748 mmHg 92%
23:00 +10°C° 0 mm 3 m/s 749 mmHg 92%

Mâine, 20 Mai, Joi

Timp Temperatura Precipitaţii Vânt Presiune Umiditate
00:00 +10°C° 0 mm 3 m/s 749 mmHg 92%
01:00 +10°C° 0 mm 3 m/s 749 mmHg 92%
02:00 +9°C° 0 mm 3 m/s 749 mmHg 93%
03:00 +9°C° 0 mm 3 m/s 749 mmHg 92%
04:00 +9°C° 0 mm 3 m/s 750 mmHg 91%
05:00 +9°C° 0 mm 3 m/s 750 mmHg 90%
06:00 +10°C° 0 mm 3 m/s 750 mmHg 86%
07:00 +10°C° 0 mm 3 m/s 750 mmHg 82%
08:00 +11°C° 0 mm 3 m/s 751 mmHg 78%
09:00 +12°C° 0 mm 4 m/s 750 mmHg 73%
10:00 +13°C° 0 mm 4 m/s 750 mmHg 68%
11:00 +13°C° 0 mm 5 m/s 750 mmHg 63%
12:00 +13°C° 0 mm 5 m/s 750 mmHg 66%
13:00 +13°C° 0 mm 4 m/s 750 mmHg 68%
14:00 +13°C° 0 mm 4 m/s 751 mmHg 71%
15:00 +13°C° 0 mm 4 m/s 751 mmHg 70%
16:00 +13°C° 0 mm 4 m/s 751 mmHg 70%
17:00 +13°C° 0 mm 3 m/s 751 mmHg 69%
18:00 +12°C° 0 mm 3 m/s 751 mmHg 73%
19:00 +12°C° 0 mm 2 m/s 751 mmHg 77%
20:00 +12°C° 0 mm 2 m/s 751 mmHg 82%
21:00 +10°C° 0 mm 2 m/s 752 mmHg 83%
22:00 +10°C° 0 mm 3 m/s 752 mmHg 84%
23:00 +9°C° 0 mm 3 m/s 752 mmHg 86%

Poimâine, 21 Mai, Vineri

Timp Temperatura Precipitaţii Vânt Presiune Umiditate
00:00 +8°C° 0 mm 3 m/s 753 mmHg 88%
01:00 +7°C° 0 mm 2 m/s 753 mmHg 89%
02:00 +5°C° 0 mm 2 m/s 753 mmHg 91%
03:00 +6°C° 0 mm 2 m/s 753 mmHg 90%
04:00 +6°C° 0 mm 2 m/s 754 mmHg 89%
05:00 +6°C° 0 mm 2 m/s 754 mmHg 88%
06:00 +8°C° 0 mm 3 m/s 754 mmHg 78%
07:00 +9°C° 0 mm 3 m/s 754 mmHg 69%
08:00 +11°C° 0 mm 4 m/s 754 mmHg 59%
09:00 +12°C° 0 mm 4 m/s 754 mmHg 56%
10:00 +13°C° 0 mm 4 m/s 755 mmHg 53%
11:00 +14°C° 0 mm 4 m/s 755 mmHg 50%
12:00 +14°C° 0.2 mm 4 m/s 755 mmHg 50%
13:00 +15°C° 0.2 mm 4 m/s 755 mmHg 50%
14:00 +15°C° 0.2 mm 4 m/s 755 mmHg 50%
15:00 +15°C° 0 mm 4 m/s 755 mmHg 50%
16:00 +15°C° 0 mm 4 m/s 755 mmHg 50%
17:00 +15°C° 0 mm 4 m/s 755 mmHg 50%
18:00 +13°C° 0 mm 4 m/s 755 mmHg 56%
19:00 +12°C° 0 mm 3 m/s 756 mmHg 63%
20:00 +10°C° 0 mm 2 m/s 756 mmHg 70%
21:00 +9°C° 0 mm 2 m/s 756 mmHg 74%
22:00 +8°C° 0 mm 2 m/s 756 mmHg 79%
23:00 +7°C° 0 mm 2 m/s 757 mmHg 84%

22 Mai, Sâmbătă

Timp Temperatura Precipitaţii Vânt Presiune Umiditate
00:00 +7°C° 0 mm 2 m/s 757 mmHg 85%
01:00 +7°C° 0 mm 2 m/s 757 mmHg 86%
02:00 +7°C° 0 mm 2 m/s 757 mmHg 87%
03:00 +7°C° 0 mm 2 m/s 756 mmHg 83%
04:00 +8°C° 0 mm 3 m/s 756 mmHg 80%
05:00 +8°C° 0 mm 3 m/s 756 mmHg 77%
06:00 +9°C° 0 mm 3 m/s 756 mmHg 73%
07:00 +11°C° 0 mm 4 m/s 756 mmHg 69%
08:00 +12°C° 0 mm 4 m/s 756 mmHg 66%
09:00 +14°C° 0 mm 5 m/s 756 mmHg 60%
10:00 +15°C° 0 mm 5 m/s 755 mmHg 54%
11:00 +17°C° 0 mm 6 m/s 755 mmHg 48%
12:00 +16°C° 0.1 mm 5 m/s 755 mmHg 55%
13:00 +15°C° 0.1 mm 4 m/s 755 mmHg 62%
14:00 +16°C° 0.1 mm 3 m/s 755 mmHg 69%
15:00 +16°C° 0 mm 3 m/s 755 mmHg 70%
16:00 +16°C° 0 mm 3 m/s 754 mmHg 70%
17:00 +16°C° 0 mm 3 m/s 754 mmHg 71%
18:00 +16°C° 0 mm 3 m/s 754 mmHg 72%
19:00 +16°C° 0 mm 3 m/s 754 mmHg 74%
20:00 +14°C° 0 mm 3 m/s 754 mmHg 75%
21:00 +14°C° 0 mm 3 m/s 754 mmHg 77%
22:00 +13°C° 0 mm 3 m/s 754 mmHg 78%
23:00 +13°C° 0 mm 2 m/s 754 mmHg 80%

23 Mai, Duminică

Timp Temperatura Precipitaţii Vânt Presiune Umiditate
00:00 +12°C° 0 mm 3 m/s 753 mmHg 81%
01:00 +12°C° 0 mm 3 m/s 753 mmHg 83%
02:00 +11°C° 0 mm 4 m/s 753 mmHg 84%
03:00 +11°C° 0 mm 4 m/s 752 mmHg 85%
04:00 +11°C° 0 mm 4 m/s 751 mmHg 86%
05:00 +12°C° 0 mm 5 m/s 751 mmHg 86%
06:00 +13°C° 0 mm 5 m/s 750 mmHg 82%
07:00 +14°C° 0 mm 5 m/s 750 mmHg 78%
08:00 +15°C° 0 mm 6 m/s 749 mmHg 74%
09:00 +15°C° 0.3 mm 6 m/s 749 mmHg 76%
10:00 +15°C° 0.3 mm 6 m/s 748 mmHg 78%
11:00 +15°C° 0.3 mm 6 m/s 748 mmHg 81%
12:00 +14°C° 1.3 mm 5 m/s 748 mmHg 85%
13:00 +13°C° 1.3 mm 4 m/s 748 mmHg 89%
14:00 +12°C° 1.3 mm 4 m/s 748 mmHg 94%
15:00 +13°C° 0.2 mm 3 m/s 748 mmHg 90%
16:00 +13°C° 0.2 mm 3 m/s 748 mmHg 87%
17:00 +14°C° 0.2 mm 3 m/s 748 mmHg 83%
18:00 +13°C° 0 mm 3 m/s 749 mmHg 84%
19:00 +12°C° 0 mm 3 m/s 749 mmHg 85%
20:00 +13°C° 0 mm 2 m/s 749 mmHg 85%
21:00 +12°C° 0 mm 2 m/s 750 mmHg 88%
22:00 +10°C° 0 mm 2 m/s 750 mmHg 90%
23:00 +9°C° 0 mm 2 m/s 751 mmHg 92%

24 Mai, Luni

Timp Temperatura Precipitaţii Vânt Presiune Umiditate
00:00 +8°C° 0 mm 2 m/s 751 mmHg 93%
01:00 +7°C° 0 mm 2 m/s 752 mmHg 94%
02:00 +6°C° 0 mm 2 m/s 752 mmHg 95%
03:00 +6°C° 0 mm 2 m/s 752 mmHg 93%
04:00 +6°C° 0 mm 2 m/s 753 mmHg 91%
05:00 +5°C° 0 mm 3 m/s 753 mmHg 90%
06:00 +8°C° 0 mm 3 m/s 753 mmHg 80%
07:00 +10°C° 0 mm 4 m/s 753 mmHg 71%
08:00 +11°C° 0 mm 4 m/s 753 mmHg 62%
09:00 +12°C° 0 mm 4 m/s 754 mmHg 59%
10:00 +13°C° 0 mm 4 m/s 754 mmHg 56%
11:00 +13°C° 0 mm 4 m/s 754 mmHg 53%
12:00 +14°C° 0 mm 4 m/s 754 mmHg 52%
13:00 +14°C° 0 mm 4 m/s 754 mmHg 52%
14:00 +14°C° 0 mm 4 m/s 754 mmHg 52%
15:00 +14°C° 0 mm 4 m/s 754 mmHg 54%
16:00 +14°C° 0 mm 4 m/s 754 mmHg 55%
17:00 +13°C° 0 mm 3 m/s 754 mmHg 56%
18:00 +12°C° 0.1 mm 3 m/s 754 mmHg 64%
19:00 +11°C° 0.1 mm 3 m/s 754 mmHg 73%
20:00 +9°C° 0.1 mm 2 m/s 755 mmHg 81%
21:00 +9°C° 0 mm 2 m/s 755 mmHg 84%
22:00 +8°C° 0 mm 2 m/s 755 mmHg 87%
23:00 +7°C° 0 mm 3 m/s 755 mmHg 90%
Arată mai mult

Formular de consimțământ

Meteoprog și furnizorii noștri de servicii pot stoca și accesa date personale, precum cookies, identificatori de dispozitiv sau alte tehnologii similare pe dispozitivul dumneavoastră și procesa astfel de date pentru a personaliza conținutul și reclamele, dar și pentru a oferi caracteristici de social media și pentru a analiza traficul.

  • Stocarea și/sau accesarea informațiilor pe dispozitivul dumneavoastră

    Cookies, identificatori de dispozitiv sau alte informații pot fi stocate sau accesate pe dispozitiv în scopurile indicate mai sus.

  • Reclame și conținut personalizat, evaluarea reclamelor și a conținutului, informații despre audiențe și dezvoltarea produselor

    Reclamele și conținutul pot fi personalizate pe baza unui profil. Pot fi adăugate date suplimentare pentru a personaliza mai bine reclamele și conținutul. Performanța reclamelor și conținutului poate fi măsurată. Pot fi obținute informații despre utilizatorii care au văzut reclamele și conținutul. Aceste date pot fi utilizate pentru a dezvolta sau îmbunătăți experiența utilizatorilor, sistemele și software-ul.

Dând clic pe ‘Sunt de acord’, permiteți utilizarea cookie-urilor menționate, a identificatorilor de dispozitiv, balizelor web sau altor tehnologii similare. Setările pot fi modificate din browser-ul dispozitivului dumneavoastră.

În anumite scopuri, interesele legitime pot prima asupra consimțământului. Puteți citi mai multe informații în acest sens în Politica privind Confidențialitatea Datelor și Cookie.